TimeCDT,TemperatureF,Dew PointF,Humidity,Sea Level PressureIn,VisibilityMPH,Wind Direction,Wind SpeedMPH,Gust SpeedMPH,PrecipitationIn,Events,Conditions,WindDirDegrees,DateUTC
12:54 AM,69.1,57.0,65,29.84,10.0,Variable,4.6,-,N/A,,Overcast,0,2013-04-09 05:54:00
1:54 AM,69.1,57.0,65,29.83,10.0,SE,4.6,-,N/A,,Mostly Cloudy,140,2013-04-09 06:54:00
2:54 AM,66.9,55.9,68,29.81,10.0,ESE,3.5,-,N/A,,Partly Cloudy,120,2013-04-09 07:54:00
3:54 AM,66.9,55.9,68,29.79,10.0,SE,8.1,-,N/A,,Clear,130,2013-04-09 08:54:00
4:54 AM,66.0,55.0,68,29.79,10.0,ESE,4.6,-,N/A,,Mostly Cloudy,120,2013-04-09 09:54:00
5:54 AM,66.9,55.0,66,29.80,10.0,Variable,6.9,-,N/A,,Overcast,0,2013-04-09 10:54:00
6:54 AM,66.9,55.9,68,29.82,10.0,South,8.1,-,N/A,,Overcast,170,2013-04-09 11:54:00
7:54 AM,66.9,55.9,68,29.83,10.0,SSE,8.1,-,N/A,,Overcast,160,2013-04-09 12:54:00
8:54 AM,68.0,57.0,68,29.83,10.0,South,12.7,19.6,N/A,,Overcast,180,2013-04-09 13:54:00
9:54 AM,71.1,57.0,61,29.85,10.0,SSW,13.8,25.3,N/A,,Overcast,200,2013-04-09 14:54:00
10:54 AM,73.0,57.0,57,29.86,10.0,SSW,15.0,24.2,N/A,,Overcast,200,2013-04-09 15:54:00
11:54 AM,72.0,57.9,61,29.86,10.0,SSW,16.1,32.2,N/A,,Overcast,210,2013-04-09 16:54:00
12:54 PM,73.9,59.0,59,29.85,10.0,SSW,13.8,25.3,N/A,,Overcast,200,2013-04-09 17:54:00
1:54 PM,75.0,59.0,57,29.84,10.0,SSW,11.5,26.5,N/A,,Overcast,200,2013-04-09 18:54:00
2:54 PM,75.9,59.0,56,29.83,10.0,SSW,15.0,-,N/A,,Mostly Cloudy,210,2013-04-09 19:54:00
3:54 PM,75.9,60.1,58,29.81,10.0,South,13.8,19.6,N/A,,Mostly Cloudy,190,2013-04-09 20:54:00
4:54 PM,78.1,60.1,54,29.80,10.0,South,10.4,17.3,N/A,,Mostly Cloudy,190,2013-04-09 21:54:00
5:54 PM,78.1,60.1,54,29.79,10.0,South,10.4,-,N/A,,Mostly Cloudy,170,2013-04-09 22:54:00
6:54 PM,77.0,59.0,54,29.78,10.0,South,4.6,-,N/A,,Partly Cloudy,190,2013-04-09 23:54:00
7:54 PM,75.0,59.0,57,29.78,10.0,SSE,3.5,-,N/A,,Clear,150,2013-04-10 00:54:00
8:54 PM,72.0,57.9,61,29.80,10.0,Calm,Calm,-,N/A,,Clear,0,2013-04-10 01:54:00
9:54 PM,73.9,57.0,55,29.81,10.0,Variable,3.5,-,N/A,,Clear,0,2013-04-10 02:54:00
10:54 PM,66.9,57.0,70,29.80,10.0,Calm,Calm,-,N/A,,Clear,0,2013-04-10 03:54:00
11:54 PM,66.9,57.0,70,29.78,10.0,Calm,Calm,-,N/A,,Clear,0,2013-04-10 04:54:00